METAR|ÜBERSETZT|TAF
EDHK 251550Z 29005KT 9999 FEW028 BKN070 23/20 Q1017
Login|Impressum|Kontakt



Buchtipp - Dieter Steffen: Prägung

Lesenswert und spannende Fliegerlektüre. Hier klicken für die Rezension.



Hier erfahren Sie alles über Motorflug Segelflug Fallschirmspringen Ballonfahren




Der LSV-Kiel ist Mitglied im
Luftsportverband Schleswig-Holstein und im
DAeC